Weather History for Grand Canyon, AZ

Change the Weather History Date:

Tuesday, May 7, 2013

  Actual Average Record
Temperature  
Mean Temperature 44 °F -  
Max Temperature 55 °F 65 °F 84 °F (1989)
Min Temperature 32 °F 27 °F 17 °F (1988)
Degree Days  
Heating Degree Days 22    
Moisture  
Dew Point 32 °F    
Average Humidity 68    
Maximum Humidity 93    
Minimum Humidity 33    
Precipitation  
Precipitation 0.11 in - - ()
Sea Level Pressure  
Sea Level Pressure 29.93 in    
Wind  
Wind Speed 7 mph (SSW)    
Max Wind Speed 18 mph    
Max Gust Speed 34 mph    
Visibility 9 miles    
Events Rain    
Averages and records for this station are not official NWS values.
T = Trace of Precipitation, MM = Missing Value Source: NWS Daily Summary

Daily Weather History Graph

Daily Weather History Graph

Search for Another Location

Airport:

Trip Planner

Search our weather history database for the weather conditions in past years. The results will help you decide how hot, cold, wet, or windy it might be!

Date:

Astronomy

May. 07, 2013 Rise Set
Actual Time 5:29 AM MST 7:21 PM MST
Civil Twilight 5:01 AM MST 7:49 PM MST
Nautical Twilight 4:28 AM MST 8:22 PM MST
Astronomical Twilight 3:52 AM MST 8:59 PM MST
Moon 4:01 AM MST (5/7) 5:27 PM MST (5/7)
Length of Visible Light 14h 47m
Length of Day
13h 51m
Waning Crescent, 5% of the Moon is Illuminated
May 7
Waning Crescent
May 9
New
May 17
First Quarter
May 24
Full
May 31
Last Quarter

Hourly Weather History & Observations

Time (MST) Temp. Windchill Dew Point Humidity Pressure Visibility Wind Dir Wind Speed Gust Speed Precip Events Conditions
12:54 AM 35.1 °F - 27.0 °F 72% 29.92 in 10.0 mi Calm Calm - N/A   Partly Cloudy
1:54 AM 36.0 °F - 28.0 °F 73% 29.91 in 10.0 mi Calm Calm - N/A   Mostly Cloudy
3:54 AM 45.0 °F 41.2 °F 34.0 °F 65% 29.86 in 10.0 mi South 6.9 mph - N/A   Overcast
4:54 AM 44.1 °F 41.5 °F 35.1 °F 71% 29.88 in 10.0 mi SSW 4.6 mph - N/A   Overcast
6:12 AM 44.6 °F 43.1 °F 35.6 °F 71% 30.06 in 10.0 mi SW 3.5 mph - N/A   Overcast
6:54 AM 44.1 °F 40.1 °F 37.0 °F 76% 29.91 in 10.0 mi SSW 6.9 mph - 0.00 in Rain Light Rain
7:54 AM 44.1 °F 40.8 °F 37.9 °F 79% 29.92 in 6.0 mi South 5.8 mph - 0.02 in Rain Light Rain
8:47 AM 46.4 °F 40.7 °F 39.2 °F 76% 30.07 in 10.0 mi SSW 12.7 mph - 0.00 in   Overcast
8:54 AM 46.9 °F - 37.9 °F 71% 29.91 in 10.0 mi SSW 9.2 mph - 0.00 in   Mostly Cloudy
9:54 AM 52.0 °F - 36.0 °F 54% 29.90 in 10.0 mi SW 16.1 mph 26.5 mph N/A   Overcast
10:54 AM 50.0 °F - 35.1 °F 57% 29.93 in 10.0 mi SSW 18.4 mph 27.6 mph 0.00 in Rain Light Rain
11:54 AM 53.1 °F - 33.1 °F 47% 29.88 in 10.0 mi SSW 17.3 mph 23.0 mph 0.00 in   Mostly Cloudy
12:54 PM 55.0 °F - 28.0 °F 35% 29.90 in 10.0 mi SSW 16.1 mph 26.5 mph 0.00 in   Overcast
1:54 PM 55.0 °F - 26.1 °F 33% 29.87 in 10.0 mi SSW 17.3 mph 29.9 mph 0.00 in   Mostly Cloudy
2:54 PM 55.0 °F - 28.9 °F 37% 29.85 in 10.0 mi South 17.3 mph 34.5 mph 0.00 in   Mostly Cloudy
3:54 PM 53.1 °F - 28.9 °F 40% 29.83 in 10.0 mi SSE 17.3 mph 27.6 mph 0.00 in   Mostly Cloudy
4:54 PM 51.1 °F - 28.0 °F 41% 29.83 in 10.0 mi South 16.1 mph 21.9 mph 0.00 in   Partly Cloudy
5:54 PM 48.9 °F - 30.0 °F 48% 29.84 in 10.0 mi South 11.5 mph 25.3 mph N/A   Overcast
6:54 PM 45.0 °F 39.7 °F 28.0 °F 52% 29.88 in 10.0 mi WSW 10.4 mph - N/A   Overcast
7:25 PM 39.2 °F 31.2 °F 33.8 °F 81% 30.04 in 6.0 mi WSW 13.8 mph 19.6 mph 0.01 in Rain Light Rain
7:46 PM 37.4 °F 30.3 °F 33.8 °F 87% 30.05 in 2.5 mi SW 10.4 mph 23.0 mph 0.05 in Rain Rain
7:54 PM 36.0 °F 32.1 °F 33.1 °F 89% 29.97 in 2.5 mi WSW 4.6 mph - 0.07 in Rain Light Rain
8:01 PM 35.6 °F - 33.8 °F 93% 30.05 in 3.0 mi Calm Calm - 0.01 in Rain Rain
8:25 PM 35.6 °F - 33.8 °F 93% 30.03 in 10.0 mi Calm Calm - 0.02 in   Scattered Clouds
8:54 PM 36.0 °F - 33.1 °F 89% 29.95 in 10.0 mi Calm Calm - 0.02 in   Clear
9:54 PM 33.1 °F - 30.9 °F 92% 29.95 in 10.0 mi Calm Calm - N/A   Partly Cloudy
10:54 PM 32.0 °F - 28.9 °F 88% 29.98 in 10.0 mi Calm Calm - N/A   Mostly Cloudy
11:54 PM 33.1 °F - 30.9 °F 92% 29.98 in 10.0 mi Calm Calm - N/A   Overcast